| time (UTC) | temp F | wind direction | speed MPH | gust MPH | rain 1hr in | rain 24hr in | rain mn in | humidity % | barometer mb |
| 20260505211420 | 91 | 207 | 4.0 | 13.0 | 0.00 | 0.00 | 0.00 | 53 | 1004.8 |
| 20260505210916 | 91 | 197 | 2.0 | 5.0 | 0.00 | 0.00 | 0.00 | 54 | 1004.8 |
| 20260505210414 | 90 | 200 | 6.0 | 14.0 | 0.00 | 0.00 | 0.00 | 56 | 1005.1 |
| 20260505205910 | 92 | 212 | 2.0 | 5.0 | 0.00 | 0.00 | 0.00 | 53 | 1005.4 |
| 20260505205409 | 91 | 271 | 1.0 | 8.0 | 0.00 | 0.00 | 0.00 | 53 | 1005.2 |
| 20260505204905 | 91 | 203 | 4.0 | 7.0 | 0.00 | 0.00 | 0.00 | 54 | 1005.3 |
| 20260505204403 | 90 | 226 | 3.0 | 10.0 | 0.00 | 0.00 | 0.00 | 55 | 1005.2 |
| 20260505203900 | 87 | 212 | 7.0 | 11.0 | 0.00 | 0.00 | 0.00 | 58 | 1005.3 |
| 20260505203356 | 88 | 204 | 9.0 | 14.0 | 0.00 | 0.00 | 0.00 | 58 | 1005.4 |
| 20260505202852 | 89 | 202 | 10.0 | 17.0 | 0.00 | 0.00 | 0.00 | 57 | 1005.5 |
| 20260505202349 | 89 | 224 | 4.0 | 7.0 | 0.00 | 0.00 | 0.00 | 57 | 1005.4 |
| 20260505201846 | 89 | 197 | 7.0 | 15.0 | 0.00 | 0.00 | 0.00 | 59 | 1005.5 |
| 20260505201343 | 90 | 276 | 2.0 | 9.0 | 0.00 | 0.00 | 0.00 | 56 | 1005.4 |
| 20260505200841 | 89 | 219 | 4.0 | 14.0 | 0.00 | 0.00 | 0.00 | 59 | 1005.6 |
| 20260505200338 | 88 | 196 | 10.0 | 16.0 | 0.00 | 0.00 | 0.00 | 59 | 1005.5 |
| 20260505195833 | 88 | 219 | 2.0 | 11.0 | 0.00 | 0.00 | 0.00 | 61 | 1005.8 |
| 20260505195331 | 87 | 206 | 11.0 | 18.0 | 0.00 | 0.00 | 0.00 | 61 | 1005.7 |
| 20260505194828 | 87 | 209 | 10.0 | 15.0 | 0.00 | 0.00 | 0.00 | 59 | 1005.6 |
| 20260505194325 | 87 | 214 | 10.0 | 19.0 | 0.00 | 0.00 | 0.00 | 60 | 1005.8 |
| 20260505193820 | 87 | 214 | 8.0 | 15.0 | 0.00 | 0.00 | 0.00 | 60 | 1005.6 |
| 20260505193318 | 87 | 202 | 5.0 | 13.0 | 0.00 | 0.00 | 0.00 | 60 | 1005.7 |
| 20260505192816 | 86 | 224 | 5.0 | 16.0 | 0.00 | 0.00 | 0.00 | 63 | 1005.8 |
| 20260505192314 | 87 | 214 | 5.0 | 10.0 | 0.00 | 0.00 | 0.00 | 63 | 1005.7 |
| 20260505191812 | 86 | 211 | 10.0 | 13.0 | 0.00 | 0.00 | 0.00 | 64 | 1005.7 |
| 20260505191309 | 85 | 201 | 13.0 | 14.0 | 0.00 | 0.00 | 0.00 | 64 | 1005.8 |
| 20260505190806 | 85 | 208 | 7.0 | 13.0 | 0.00 | 0.00 | 0.00 | 66 | 1006.0 |
| 20260505190301 | 85 | 207 | 18.0 | 21.0 | 0.00 | 0.00 | 0.00 | 65 | 1006.0 |
| 20260505185757 | 85 | 204 | 7.0 | 12.0 | 0.00 | 0.00 | 0.00 | 66 | 1006.0 |
| 20260505185254 | 84 | 206 | 8.0 | 15.0 | 0.00 | 0.00 | 0.00 | 66 | 1006.3 |
| 20260505184750 | 85 | 210 | 17.0 | 17.0 | 0.00 | 0.00 | 0.00 | 65 | 1006.2 |
| 20260505184248 | 84 | 196 | 5.0 | 12.0 | 0.00 | 0.00 | 0.00 | 67 | 1006.2 |
| 20260505183744 | 85 | 209 | 11.0 | 13.0 | 0.00 | 0.00 | 0.00 | 66 | 1006.3 |
| 20260505183242 | 84 | 210 | 7.0 | 13.0 | 0.00 | 0.00 | 0.00 | 67 | 1006.2 |
| 20260505182738 | 84 | 212 | 13.0 | 15.0 | 0.00 | 0.00 | 0.00 | 66 | 1006.3 |
| 20260505182235 | 84 | 213 | 13.0 | 14.0 | 0.00 | 0.00 | 0.00 | 67 | 1006.4 |
| 20260505181731 | 83 | 205 | 4.0 | 20.0 | 0.00 | 0.00 | 0.00 | 69 | 1006.5 |
| 20260505181229 | 83 | 180 | 2.0 | 15.0 | 0.00 | 0.00 | 0.00 | 69 | 1006.2 |
| 20260505180725 | 82 | 211 | 12.0 | 19.0 | 0.00 | 0.00 | 0.00 | 69 | 1006.2 |
| 20260505180222 | 83 | 213 | 11.0 | 18.0 | 0.00 | 0.00 | 0.00 | 68 | 1006.2 |
| 20260505175718 | 83 | 190 | 3.0 | 14.0 | 0.00 | 0.00 | 0.00 | 69 | 1006.4 |
| 20260505175215 | 83 | 221 | 7.0 | 13.0 | 0.00 | 0.00 | 0.00 | 68 | 1006.5 |
| 20260505174711 | 82 | 218 | 11.0 | 15.0 | 0.00 | 0.00 | 0.00 | 68 | 1006.4 |
| 20260505174209 | 82 | 175 | 3.0 | 15.0 | 0.00 | 0.00 | 0.00 | 70 | 1006.4 |
| 20260505173704 | 81 | 183 | 9.0 | 17.0 | 0.00 | 0.00 | 0.00 | 70 | 1006.4 |
| 20260505173201 | 82 | 210 | 8.0 | 16.0 | 0.00 | 0.00 | 0.00 | 69 | 1006.5 |
| 20260505172658 | 82 | 198 | 7.0 | 18.0 | 0.00 | 0.00 | 0.00 | 70 | 1006.3 |
| 20260505172155 | 82 | 207 | 5.0 | 14.0 | 0.00 | 0.00 | 0.00 | 70 | 1006.4 |
| 20260505171655 | 81 | 220 | 13.0 | 15.0 | 0.00 | 0.00 | 0.00 | 70 | 1006.4 |
| 20260505171152 | 81 | 198 | 6.0 | 16.0 | 0.00 | 0.00 | 0.00 | 71 | 1006.3 |
| 20260505170649 | 81 | 149 | 5.0 | 12.0 | 0.00 | 0.00 | 0.00 | 71 | 1006.3 |
| 20260505170146 | 80 | 202 | 9.0 | 15.0 | 0.00 | 0.00 | 0.00 | 72 | 1006.4 |
| 20260505165646 | 80 | 207 | 12.0 | 15.0 | 0.00 | 0.00 | 0.00 | 71 | 1006.3 |
| 20260505165143 | 80 | 202 | 13.0 | 17.0 | 0.00 | 0.00 | 0.00 | 71 | 1006.0 |
| 20260505164638 | 80 | 192 | 12.0 | 21.0 | 0.00 | 0.00 | 0.00 | 71 | 1006.2 |
| 20260505164136 | 80 | 209 | 12.0 | 17.0 | 0.00 | 0.00 | 0.00 | 72 | 1006.1 |
| 20260505163634 | 80 | 206 | 14.0 | 16.0 | 0.00 | 0.00 | 0.00 | 73 | 1005.9 |
| 20260505163131 | 79 | 214 | 12.0 | 19.0 | 0.00 | 0.00 | 0.00 | 73 | 1006.0 |
| 20260505162628 | 80 | 204 | 9.0 | 22.0 | 0.00 | 0.00 | 0.00 | 73 | 1006.0 |
| 20260505162126 | 79 | 202 | 17.0 | 26.0 | 0.00 | 0.00 | 0.00 | 73 | 1006.0 |
| 20260505161623 | 79 | 209 | 16.0 | 23.0 | 0.00 | 0.00 | 0.00 | 73 | 1006.1 |
| 20260505161120 | 80 | 197 | 8.0 | 13.0 | 0.00 | 0.00 | 0.00 | 74 | 1006.2 |
| 20260505160618 | 79 | 212 | 9.0 | 17.0 | 0.00 | 0.00 | 0.00 | 74 | 1006.2 |
| 20260505160115 | 78 | 201 | 10.0 | 19.0 | 0.00 | 0.00 | 0.00 | 75 | 1006.4 |
| 20260505153055 | 77 | 210 | 9.0 | 18.0 | 0.00 | 0.00 | 0.00 | 78 | 1006.4 |
| 20260505152551 | 77 | 194 | 5.0 | 10.0 | 0.00 | 0.00 | 0.00 | 78 | 1006.4 |
| 20260505152048 | 77 | 204 | 11.0 | 13.0 | 0.00 | 0.00 | 0.00 | 78 | 1006.4 |
| 20260505151548 | 77 | 163 | 4.0 | 9.0 | 0.00 | 0.00 | 0.00 | 78 | 1006.2 |
| 20260505151046 | 77 | 196 | 8.0 | 17.0 | 0.00 | 0.00 | 0.00 | 78 | 1006.2 |
| 20260505150542 | 77 | 212 | 8.0 | 16.0 | 0.00 | 0.00 | 0.00 | 78 | 1006.3 |
| 20260505140507 | 74 | 215 | 11.0 | 12.0 | 0.00 | 0.00 | 0.00 | 82 | 1005.9 |
| 20260505124920 | 71 | 180 | 3.0 | 7.0 | 0.00 | 0.00 | 0.00 | 88 | 1005.8 |
| 20260505124417 | 70 | 204 | 5.0 | 12.0 | 0.00 | 0.00 | 0.00 | 89 | 1005.7 |
| 20260505123913 | 70 | 196 | 8.0 | 11.0 | 0.00 | 0.00 | 0.00 | 89 | 1005.5 |
| 20260505123410 | 70 | 199 | 9.0 | 12.0 | 0.00 | 0.00 | 0.00 | 89 | 1005.5 |
| 20260505122906 | 70 | 216 | 4.0 | 9.0 | 0.00 | 0.00 | 0.00 | 89 | 1005.3 |
| 20260505122403 | 70 | 197 | 5.0 | 15.0 | 0.00 | 0.00 | 0.00 | 89 | 1005.4 |
| 20260505121900 | 70 | 184 | 6.0 | 10.0 | 0.00 | 0.00 | 0.00 | 90 | 1005.2 |
| 20260505121357 | 70 | 178 | 6.0 | 9.0 | 0.00 | 0.00 | 0.00 | 90 | 1005.3 |
| 20260505120853 | 70 | 158 | 3.0 | 6.0 | 0.00 | 0.00 | 0.00 | 90 | 1005.1 |
| 20260505120349 | 69 | 188 | 4.0 | 7.0 | 0.00 | 0.00 | 0.00 | 90 | 1005.1 |
| 20260505115848 | 69 | 140 | 4.0 | 11.0 | 0.00 | 0.00 | 0.00 | 90 | 1005.1 |
| 20260505115345 | 69 | 176 | 4.0 | 12.0 | 0.00 | 0.00 | 0.00 | 90 | 1005.2 |
| 20260505114843 | 69 | 211 | 4.0 | 7.0 | 0.00 | 0.00 | 0.00 | 90 | 1005.2 |
| 20260505114339 | 69 | 203 | 7.0 | 11.0 | 0.00 | 0.00 | 0.00 | 90 | 1005.2 |
| 20260505113836 | 69 | 204 | 3.0 | 13.0 | 0.00 | 0.00 | 0.00 | 90 | 1005.1 |
| 20260505113332 | 69 | 185 | 4.0 | 14.0 | 0.00 | 0.00 | 0.00 | 90 | 1005.1 |
| 20260505112828 | 69 | 198 | 10.0 | 15.0 | 0.00 | 0.00 | 0.00 | 90 | 1005.1 |
| 20260505112326 | 69 | 176 | 9.0 | 13.0 | 0.00 | 0.00 | 0.00 | 90 | 1005.3 |
| 20260505111821 | 69 | 184 | 6.0 | 11.0 | 0.00 | 0.00 | 0.00 | 90 | 1005.3 |
| 20260505111317 | 69 | 201 | 5.0 | 11.0 | 0.00 | 0.00 | 0.00 | 90 | 1005.2 |
| 20260505110813 | 69 | 187 | 9.0 | 9.0 | 0.00 | 0.00 | 0.00 | 89 | 1004.8 |
| 20260505110311 | 70 | 213 | 12.0 | 12.0 | 0.00 | 0.00 | 0.00 | 89 | 1004.8 |
| 20260505101745 | 71 | 186 | 5.0 | 15.0 | 0.00 | 0.00 | 0.00 | 87 | 1004.9 |
| 20260505101241 | 71 | 197 | 7.0 | 14.0 | 0.00 | 0.00 | 0.00 | 87 | 1005.1 |
| 20260505100737 | 71 | 179 | 6.0 | 13.0 | 0.00 | 0.00 | 0.00 | 87 | 1005.1 |
| 20260505100234 | 71 | 182 | 10.0 | 14.0 | 0.00 | 0.00 | 0.00 | 86 | 1004.9 |
| 20260505095729 | 71 | 199 | 11.0 | 19.0 | 0.00 | 0.00 | 0.00 | 86 | 1004.9 |
| 20260505095228 | 71 | 195 | 7.0 | 21.0 | 0.00 | 0.00 | 0.00 | 86 | 1005.1 |
| 20260505094723 | 71 | 188 | 6.0 | 13.0 | 0.00 | 0.00 | 0.00 | 85 | 1005.1 |
| 20260505094220 | 72 | 198 | 12.0 | 20.0 | 0.00 | 0.00 | 0.00 | 85 | 1005.0 |
| 20260505093716 | 71 | 179 | 10.0 | 16.0 | 0.00 | 0.00 | 0.00 | 85 | 1005.1 |
| 20260505093214 | 72 | 166 | 8.0 | 16.0 | 0.00 | 0.00 | 0.00 | 85 | 1005.0 |
| 20260505092710 | 71 | 180 | 9.0 | 18.0 | 0.00 | 0.00 | 0.00 | 85 | 1005.1 |
| 20260505092209 | 71 | 208 | 10.0 | 14.0 | 0.00 | 0.00 | 0.00 | 85 | 1005.3 |
| 20260505091706 | 71 | 198 | 10.0 | 17.0 | 0.00 | 0.00 | 0.00 | 85 | 1005.4 |
| 20260505091204 | 71 | 204 | 10.0 | 14.0 | 0.00 | 0.00 | 0.00 | 86 | 1005.4 |
| 20260505090701 | 71 | 204 | 8.0 | 15.0 | 0.00 | 0.00 | 0.00 | 86 | 1005.4 |
| 20260505090159 | 71 | 200 | 11.0 | 16.0 | 0.00 | 0.00 | 0.00 | 86 | 1005.3 |
| 20260505085656 | 71 | 208 | 5.0 | 13.0 | 0.00 | 0.00 | 0.00 | 87 | 1005.4 |
| 20260505085154 | 71 | 219 | 11.0 | 12.0 | 0.00 | 0.00 | 0.00 | 87 | 1005.3 |
| 20260505084651 | 71 | 197 | 8.0 | 17.0 | 0.00 | 0.00 | 0.00 | 87 | 1005.2 |
| 20260505084150 | 71 | 203 | 7.0 | 16.0 | 0.00 | 0.00 | 0.00 | 87 | 1005.2 |
| 20260505083647 | 71 | 200 | 7.0 | 13.0 | 0.00 | 0.00 | 0.00 | 87 | 1005.4 |
| 20260505083143 | 71 | 206 | 14.0 | 21.0 | 0.00 | 0.00 | 0.00 | 86 | 1005.2 |
| 20260505082639 | 71 | 196 | 10.0 | 16.0 | 0.00 | 0.00 | 0.00 | 86 | 1005.2 |
| 20260505082137 | 71 | 196 | 8.0 | 19.0 | 0.00 | 0.00 | 0.00 | 86 | 1005.5 |
| 20260505081632 | 71 | 199 | 10.0 | 17.0 | 0.00 | 0.00 | 0.00 | 86 | 1005.4 |
| 20260505081130 | 71 | 182 | 6.0 | 16.0 | 0.00 | 0.00 | 0.00 | 86 | 1005.6 |
| 20260505080627 | 71 | 204 | 6.0 | 18.0 | 0.00 | 0.00 | 0.00 | 86 | 1005.5 |
| 20260505080123 | 71 | 195 | 8.0 | 21.0 | 0.00 | 0.00 | 0.00 | 86 | 1005.5 |
| 20260505075619 | 71 | 134 | 2.0 | 14.0 | 0.00 | 0.00 | 0.00 | 86 | 1005.7 |
| 20260505075116 | 71 | 203 | 9.0 | 17.0 | 0.00 | 0.00 | 0.00 | 85 | 1005.8 |
| 20260505074613 | 71 | 177 | 5.0 | 14.0 | 0.00 | 0.00 | 0.00 | 85 | 1005.8 |
| 20260505074110 | 71 | 176 | 2.0 | 15.0 | 0.00 | 0.00 | 0.00 | 85 | 1005.9 |
| 20260505073608 | 71 | 192 | 14.0 | 18.0 | 0.00 | 0.00 | 0.00 | 85 | 1005.8 |
| 20260505073106 | 71 | 176 | 9.0 | 13.0 | 0.00 | 0.00 | 0.00 | 85 | 1005.8 |
| 20260505072601 | 71 | 183 | 5.0 | 14.0 | 0.00 | 0.00 | 0.00 | 84 | 1005.9 |
| 20260505072058 | 71 | 190 | 6.0 | 18.0 | 0.00 | 0.00 | 0.00 | 84 | 1006.1 |
| 20260505071553 | 72 | 180 | 6.0 | 17.0 | 0.00 | 0.00 | 0.00 | 83 | 1006.2 |
| 20260505071052 | 72 | 185 | 4.0 | 13.0 | 0.00 | 0.00 | 0.00 | 83 | 1006.4 |
| 20260505070549 | 72 | 184 | 16.0 | 16.0 | 0.00 | 0.00 | 0.00 | 83 | 1006.3 |
| 20260505070044 | 72 | 196 | 4.0 | 13.0 | 0.00 | 0.00 | 0.00 | 83 | 1006.4 |
| 20260505065540 | 72 | 203 | 10.0 | 18.0 | 0.00 | 0.00 | 0.00 | 82 | 1006.3 |
| 20260505065038 | 72 | 170 | 6.0 | 13.0 | 0.00 | 0.00 | 0.00 | 82 | 1006.4 |
| 20260505064534 | 72 | 174 | 3.0 | 13.0 | 0.00 | 0.00 | 0.00 | 82 | 1006.4 |
| 20260505064033 | 72 | 177 | 3.0 | 16.0 | 0.00 | 0.00 | 0.00 | 81 | 1006.6 |
| 20260505063530 | 72 | 191 | 11.0 | 17.0 | 0.00 | 0.00 | 0.00 | 81 | 1006.7 |
| 20260505063026 | 73 | 167 | 9.0 | 12.0 | 0.00 | 0.00 | 0.00 | 81 | 1006.6 |
| 20260505062522 | 73 | 181 | 6.0 | 19.0 | 0.00 | 0.00 | 0.00 | 80 | 1006.8 |
| 20260505062020 | 73 | 178 | 6.0 | 15.0 | 0.00 | 0.00 | 0.00 | 80 | 1006.8 |
| 20260505061517 | 73 | 198 | 9.0 | 18.0 | 0.00 | 0.00 | 0.00 | 79 | 1007.0 |
| 20260505061015 | 73 | 168 | 11.0 | 14.0 | 0.00 | 0.00 | 0.00 | 79 | 1006.9 |
| 20260505060512 | 73 | 158 | 5.0 | 20.0 | 0.00 | 0.00 | 0.00 | 79 | 1006.8 |
| 20260505060008 | 73 | 191 | 13.0 | 19.0 | 0.00 | 0.00 | 0.00 | 78 | 1006.8 |
| 20260505055504 | 73 | 194 | 6.0 | 15.0 | 0.00 | 0.00 | 0.00 | 78 | 1006.9 |
| 20260505055001 | 73 | 183 | 5.0 | 17.0 | 0.00 | 0.00 | 0.00 | 77 | 1006.8 |
| 20260505054458 | 73 | 164 | 6.0 | 11.0 | 0.00 | 0.00 | 0.00 | 77 | 1006.8 |
| 20260505053956 | 73 | 185 | 3.0 | 10.0 | 0.00 | 0.00 | 0.00 | 77 | 1006.7 |
| 20260505053453 | 73 | 186 | 7.0 | 10.0 | 0.00 | 0.00 | 0.00 | 76 | 1006.7 |
| 20260505052949 | 73 | 139 | 2.0 | 9.0 | 0.00 | 0.00 | 0.00 | 76 | 1006.7 |
| 20260505052447 | 74 | 181 | 8.0 | 11.0 | 0.00 | 0.00 | 0.00 | 75 | 1006.9 |
| 20260505051944 | 74 | 162 | 6.0 | 17.0 | 0.00 | 0.00 | 0.00 | 75 | 1007.1 |
| 20260505051441 | 74 | 190 | 7.0 | 14.0 | 0.00 | 0.00 | 0.00 | 74 | 1007.2 |
| 20260505050939 | 74 | 211 | 6.0 | 11.0 | 0.00 | 0.00 | 0.00 | 74 | 1007.1 |
| 20260505050437 | 74 | 195 | 6.0 | 16.0 | 0.00 | 0.00 | 0.00 | 73 | 1007.2 |
| 20260505041405 | 75 | 181 | 6.0 | 20.0 | 0.00 | 0.00 | 0.00 | 72 | 1007.2 |
| 20260505040902 | 75 | 199 | 7.0 | 14.0 | 0.00 | 0.00 | 0.00 | 73 | 1007.3 |
| 20260505040359 | 75 | 156 | 4.0 | 14.0 | 0.00 | 0.00 | 0.00 | 73 | 1007.2 |
| 20260505035856 | 75 | 177 | 7.0 | 12.0 | 0.00 | 0.00 | 0.00 | 72 | 1007.3 |
| 20260505035352 | 75 | 200 | 6.0 | 6.0 | 0.00 | 0.00 | 0.00 | 73 | 1007.1 |
| 20260505034849 | 75 | 212 | 5.0 | 11.0 | 0.00 | 0.00 | 0.00 | 72 | 1007.4 |
| 20260505034345 | 75 | 149 | 3.0 | 8.0 | 0.00 | 0.00 | 0.00 | 73 | 1007.1 |
| 20260505033843 | 75 | 207 | 9.0 | 11.0 | 0.00 | 0.00 | 0.00 | 73 | 1007.0 |
| 20260505033339 | 75 | 170 | 3.0 | 12.0 | 0.00 | 0.00 | 0.00 | 72 | 1007.0 |
| 20260505032838 | 75 | 199 | 7.0 | 8.0 | 0.00 | 0.00 | 0.00 | 72 | 1006.9 |
| 20260505032334 | 75 | 199 | 8.0 | 11.0 | 0.00 | 0.00 | 0.00 | 72 | 1007.0 |
| 20260505031831 | 75 | 165 | 3.0 | 15.0 | 0.00 | 0.00 | 0.00 | 72 | 1007.0 |
| 20260505031327 | 75 | 187 | 6.0 | 12.0 | 0.00 | 0.00 | 0.00 | 72 | 1007.2 |
| 20260505030825 | 75 | 194 | 7.0 | 10.0 | 0.00 | 0.00 | 0.00 | 72 | 1007.1 |
| 20260505030321 | 75 | 180 | 7.0 | 16.0 | 0.00 | 0.00 | 0.00 | 72 | 1007.4 |
| 20260505025816 | 75 | 168 | 3.0 | 6.0 | 0.00 | 0.00 | 0.00 | 72 | 1007.2 |
| 20260505025314 | 75 | 182 | 5.0 | 11.0 | 0.00 | 0.00 | 0.00 | 72 | 1007.5 |
| 20260505024812 | 75 | 192 | 7.0 | 12.0 | 0.00 | 0.00 | 0.00 | 72 | 1007.3 |
| 20260505024309 | 75 | 153 | 5.0 | 10.0 | 0.00 | 0.00 | 0.00 | 72 | 1007.2 |
| 20260505023807 | 75 | 191 | 6.0 | 13.0 | 0.00 | 0.00 | 0.00 | 72 | 1007.1 |
| 20260505023303 | 75 | 167 | 4.0 | 10.0 | 0.00 | 0.00 | 0.00 | 72 | 1007.2 |
| 20260505022801 | 75 | 174 | 3.0 | 12.0 | 0.00 | 0.00 | 0.00 | 72 | 1007.1 |
| 20260505022258 | 75 | 140 | 2.0 | 13.0 | 0.00 | 0.00 | 0.00 | 72 | 1007.0 |
| 20260505021755 | 75 | 159 | 2.0 | 13.0 | 0.00 | 0.00 | 0.00 | 71 | 1007.1 |
| 20260505021251 | 75 | 150 | 2.0 | 10.0 | 0.00 | 0.00 | 0.00 | 71 | 1007.0 |
| 20260505020748 | 75 | 192 | 8.0 | 13.0 | 0.00 | 0.00 | 0.00 | 71 | 1007.0 |
| 20260505020242 | 75 | 163 | 3.0 | 11.0 | 0.00 | 0.00 | 0.00 | 71 | 1007.1 |
| 20260505015740 | 75 | 194 | 3.0 | 9.0 | 0.00 | 0.00 | 0.00 | 70 | 1007.0 |
| 20260505015237 | 75 | 163 | 3.0 | 13.0 | 0.00 | 0.00 | 0.00 | 70 | 1006.8 |
| 20260505014734 | 76 | 148 | 2.0 | 10.0 | 0.00 | 0.00 | 0.00 | 70 | 1006.9 |
| 20260505014231 | 76 | 139 | 5.0 | 7.0 | 0.00 | 0.00 | 0.00 | 69 | 1007.1 |
| 20260505013728 | 76 | 162 | 4.0 | 12.0 | 0.00 | 0.00 | 0.00 | 69 | 1007.1 |
| 20260505013225 | 76 | 111 | 3.0 | 7.0 | 0.00 | 0.00 | 0.00 | 69 | 1007.0 |
| 20260505012723 | 76 | 186 | 4.0 | 9.0 | 0.00 | 0.00 | 0.00 | 69 | 1006.9 |
| 20260505012220 | 76 | 166 | 2.0 | 10.0 | 0.00 | 0.00 | 0.00 | 68 | 1006.9 |
| 20260505011716 | 76 | 143 | 3.0 | 6.0 | 0.00 | 0.00 | 0.00 | 68 | 1007.2 |
| 20260505011214 | 77 | 156 | 3.0 | 9.0 | 0.00 | 0.00 | 0.00 | 68 | 1007.0 |
| 20260505010709 | 77 | 152 | 3.0 | 8.0 | 0.00 | 0.00 | 0.00 | 67 | 1006.9 |
| 20260505010206 | 77 | 167 | 6.0 | 12.0 | 0.00 | 0.00 | 0.00 | 67 | 1006.8 |
| 20260505005702 | 77 | 173 | 5.0 | 12.0 | 0.00 | 0.00 | 0.00 | 66 | 1007.0 |
| 20260505005159 | 77 | 144 | 3.0 | 10.0 | 0.00 | 0.00 | 0.00 | 67 | 1007.1 |
| 20260505004656 | 77 | 199 | 11.0 | 15.0 | 0.00 | 0.00 | 0.00 | 66 | 1007.1 |
| 20260505004152 | 77 | 174 | 6.0 | 8.0 | 0.00 | 0.00 | 0.00 | 66 | 1007.0 |
| 20260505003649 | 77 | 156 | 2.0 | 14.0 | 0.00 | 0.00 | 0.00 | 66 | 1007.3 |
| 20260505003148 | 77 | 187 | 8.0 | 14.0 | 0.00 | 0.00 | 0.00 | 66 | 1007.2 |
| 20260505002644 | 77 | 173 | 4.0 | 14.0 | 0.00 | 0.00 | 0.00 | 66 | 1007.1 |
| 20260505002142 | 78 | 160 | 6.0 | 18.0 | 0.00 | 0.00 | 0.00 | 65 | 1007.2 |
| 20260505001638 | 78 | 180 | 7.0 | 14.0 | 0.00 | 0.00 | 0.00 | 65 | 1007.3 |
| 20260505001136 | 78 | 194 | 7.0 | 15.0 | 0.00 | 0.00 | 0.00 | 65 | 1007.5 |
| 20260505000633 | 78 | 172 | 11.0 | 20.0 | 0.00 | 0.00 | 0.00 | 64 | 1007.4 |
| 20260505000131 | 78 | 150 | 7.0 | 9.0 | 0.00 | 0.00 | 0.00 | 65 | 1007.4 |
| 20260504235627 | 78 | 182 | 3.0 | 17.0 | 0.00 | 0.00 | 0.00 | 65 | 1007.5 |
| 20260504235123 | 78 | 214 | 6.0 | 11.0 | 0.00 | 0.00 | 0.00 | 64 | 1007.6 |
| 20260504234621 | 78 | 166 | 4.0 | 11.0 | 0.00 | 0.00 | 0.00 | 64 | 1007.6 |
| 20260504234118 | 79 | 165 | 5.0 | 11.0 | 0.00 | 0.00 | 0.00 | 64 | 1007.7 |
| 20260504233614 | 79 | 185 | 8.0 | 13.0 | 0.00 | 0.00 | 0.00 | 63 | 1007.8 |
| 20260504233110 | 79 | 198 | 3.0 | 11.0 | 0.00 | 0.00 | 0.00 | 63 | 1007.7 |
| 20260504232607 | 79 | 165 | 13.0 | 18.0 | 0.00 | 0.00 | 0.00 | 62 | 1007.7 |
| 20260504232105 | 79 | 203 | 11.0 | 17.0 | 0.00 | 0.00 | 0.00 | 63 | 1007.7 |
| 20260504231601 | 79 | 146 | 4.0 | 17.0 | 0.00 | 0.00 | 0.00 | 63 | 1007.7 |
| 20260504231057 | 79 | 179 | 4.0 | 18.0 | 0.00 | 0.00 | 0.00 | 63 | 1007.8 |
| 20260504230553 | 79 | 194 | 10.0 | 19.0 | 0.00 | 0.00 | 0.00 | 62 | 1007.9 |
| 20260504230052 | 79 | 181 | 6.0 | 11.0 | 0.00 | 0.00 | 0.00 | 62 | 1007.8 |
| 20260504225549 | 79 | 169 | 12.0 | 15.0 | 0.00 | 0.00 | 0.00 | 62 | 1008.2 |
| 20260504225046 | 79 | 188 | 11.0 | 21.0 | 0.00 | 0.00 | 0.00 | 62 | 1008.1 |
| 20260504224542 | 80 | 188 | 5.0 | 17.0 | 0.00 | 0.00 | 0.00 | 61 | 1008.2 |
| 20260504224040 | 80 | 202 | 11.0 | 19.0 | 0.00 | 0.00 | 0.00 | 60 | 1008.1 |
| 20260504223537 | 80 | 173 | 6.0 | 19.0 | 0.00 | 0.00 | 0.00 | 61 | 1008.3 |
| 20260504223032 | 80 | 100 | 3.0 | 13.0 | 0.00 | 0.00 | 0.00 | 61 | 1008.5 |
| 20260504222529 | 80 | 204 | 9.0 | 17.0 | 0.00 | 0.00 | 0.00 | 60 | 1008.3 |
| 20260504222027 | 80 | 198 | 15.0 | 16.0 | 0.00 | 0.00 | 0.00 | 60 | 1008.3 |
| 20260504221524 | 80 | 203 | 7.0 | 18.0 | 0.00 | 0.00 | 0.00 | 61 | 1008.3 |
| 20260504221021 | 80 | 177 | 9.0 | 20.0 | 0.00 | 0.00 | 0.00 | 60 | 1008.3 |
| 20260504220517 | 80 | 167 | 3.0 | 12.0 | 0.00 | 0.00 | 0.00 | 60 | 1008.2 |
| 20260504220014 | 80 | 199 | 11.0 | 23.0 | 0.00 | 0.00 | 0.00 | 60 | 1008.4 |
| 20260504215511 | 80 | 195 | 7.0 | 17.0 | 0.00 | 0.00 | 0.00 | 61 | 1008.2 |
| 20260504215008 | 80 | 178 | 4.0 | 19.0 | 0.00 | 0.00 | 0.00 | 61 | 1008.4 |
| 20260504214504 | 81 | 183 | 4.0 | 15.0 | 0.00 | 0.00 | 0.00 | 60 | 1008.3 |
| 20260504214000 | 80 | 183 | 6.0 | 17.0 | 0.00 | 0.00 | 0.00 | 60 | 1008.4 |
| 20260504213456 | 81 | 188 | 5.0 | 12.0 | 0.00 | 0.00 | 0.00 | 59 | 1008.3 |
| 20260504212954 | 81 | 147 | 2.0 | 14.0 | 0.00 | 0.00 | 0.00 | 59 | 1008.6 |
| 20260504212450 | 82 | 180 | 5.0 | 19.0 | 0.00 | 0.00 | 0.00 | 58 | 1008.6 |
| 20260504211948 | 81 | 168 | 9.0 | 16.0 | 0.00 | 0.00 | 0.00 | 59 | 1008.7 |